Content
SEND FEEDBACK

Daily
Averages
Monthly
Summary
United States of America

INARAJAN, GUAM


Home > North America > United States > Guam
Elevation: 85 meters     Latitude: 13 18N     Longitude: 144 44E

WEATHER
 
SELECT A DAY
Number of Records: 354,808;   Date Range: 1/1/95 - 11/27/14
 
SHARE

PRINT THIS DATA

[ ← Previous Day ]
WEATHER ALMANAC - 18 AUGUST, 2014
[ Next Day → ]
[ °F ]   °C
Weather ElementAverageHighLow
Temperature27.8 °C30 °C (12:08 pm)24 °C (11:43 am)
Dewpoint24.8 °C26 °C (8:53 am)22 °C (10:08 am)
Humidity84 %94 % (5:23 am)74 % (11:56 am)
Barometer1011.9 hPa1013.5 hPa (10:56 pm)1009.8 hPa (2:58 am)
Wind Speed13.2 km/h24.1 km/h (11:36 am)
Weather ElementAverage
Visibility15 km
Wind DirectionE (90.7 °)

Weather ElementTotal
Precipitation2.79 mm
Cooling Degree Days8.7 (Base 18.3)
Growing Degree Days17 (Base 10)
Averaged from 56 records on 18 August, 2014
WEATHER CONDITIONS BREAKOUT
WIND DIRECTION BREAKOUT
WEATHER BY HOUR - 18 AUGUST, 2014
[ °F ]   °C
Local TimeTemperatureDewpointHumidityBarometerVisibilityWind DirectionWind SpeedGust SpeedPrecipitationEventsConditions
12:18 AM27 °C25 °C89 %1012.5 hPa16.1 kmNNE (30°)13 km/hMostly Cloudy
12:23 AM27 °C25 °C89 %1012.2 hPa16.1 kmNNE (20°)14.8 km/hScattered Clouds
12:58 AM26.8 °C23.5 °C82 %1011.2 hPa16.1 kmNNE (30°)16.7 km/hClear
1:58 AM26.7 °C24.1 °C86 %1010.5 hPa16.1 kmNE (40°)11.1 km/hPartly Cloudy
2:58 AM26.6 °C24.5 °C88 %1010.2 hPa16.1 kmNE (50°)9.3 km/hClear
3:58 AM25.5 °C23.4 °C88 %1010.2 hPa16.1 kmNNE (30°)9.3 km/hClear
4:58 AM24.4 °C22.4 °C89 %1010.5 hPa16.1 kmNE (50°)5.6 km/hScattered Clouds
5:03 AM25 °C23 °C89 %1011.5 hPa16.1 kmNE (50°)5.6 km/hMostly Cloudy
5:08 AM24 °C22 °C89 %1011.5 hPa16.1 kmENE (60°)5.6 km/hScattered Clouds
5:43 AM27 °C25 °C89 %1011.9 hPa16.1 kmENE (60°)7.4 km/hMostly Cloudy
5:53 AM27 °C25 °C89 %1011.9 hPa16.1 kmENE (60°)7.4 km/hScattered Clouds
5:58 AM26.7 °C24.8 °C89 %1011.2 hPa16.1 kmNE (50°)7.4 km/hScattered Clouds
6:06 AM27 °C25 °C89 %1012.2 hPa4.8 kmNNE (30°)9.3 km/hRainLight Rain
6:11 AM27 °C25 °C89 %1012.2 hPa2.4 kmNNE (30°)3.7 km/hRainLight Rain
6:16 AM27 °C25 °C89 %1011.9 hPa3.2 kmNNE (30°)7.4 km/hRainLight Rain
6:19 AM27 °C25 °C89 %1012.2 hPa12.9 kmNNE (30°)9.3 km/hMostly Cloudy
6:35 AM27 °C25 °C89 %1012.2 hPa16.1 kmENE (60°)9.3 km/hLight Drizzle
6:51 AM27 °C25 °C89 %1012.2 hPa14.5 kmNE (50°)9.3 km/hScattered Clouds
6:58 AM26.8 °C25 °C90 %1011.2 hPa16.1 kmENE (60°)7.4 km/h1.52 mmMostly Cloudy
7:03 AM27 °C25 °C89 %1012.2 hPa16.1 kmENE (70°)7.4 km/hMostly Cloudy
7:13 AM27 °C25 °C89 %1012.2 hPa16.1 kmENE (60°)13 km/hScattered Clouds
7:58 AM27.6 °C24.8 °C85 %1011.5 hPa16.1 kmENE (60°)13 km/h0.25 mmClear
8:58 AM27.9 °C24.6 °C82 %1011.9 hPa16.1 kmEast (90°)14.8 km/hScattered Clouds
9:33 AM29 °C25 °C79 %1012.5 hPa16.1 kmEast (80°)13 km/hMostly Cloudy
9:43 AM30 °C26 °C79 %1012.9 hPa16.1 kmENE (70°)13 km/hScattered Clouds
9:53 AM30 °C26 °C79 %1012.9 hPa16.1 kmENE (60°)11.1 km/hMostly Cloudy
9:58 AM29.5 °C25.8 °C80 %1011.9 hPa16.1 kmNE (50°)11.1 km/hMostly Cloudy
10:03 AM29 °C25 °C79 %1012.9 hPa16.1 kmEast (80°)14.8 km/hMostly Cloudy
10:23 AM30 °C25 °C74 %1012.9 hPa16.1 kmEast (100°)13 km/hMostly Cloudy
10:43 AM29 °C26 °C84 %1012.5 hPa16.1 kmESE (110°)13 km/hScattered Clouds
10:53 AM30 °C26 °C79 %1012.5 hPa16.1 kmEast (90°)16.7 km/hMostly Cloudy
10:58 AM29.6 °C25.6 °C79 %1011.5 hPa16.1 kmEast (100°)16.7 km/hMostly Cloudy
11:03 AM30 °C26 °C79 %1012.5 hPa16.1 kmESE (110°)14.8 km/hScattered Clouds
11:58 AM29.1 °C25.1 °C79 %1011.2 hPa16.1 kmEast (100°)16.7 km/hScattered Clouds
12:58 PM30 °C25.9 °C79 %1010.5 hPa16.1 kmSE (140°)16.7 km/hMostly Cloudy
1:28 PM29 °C25 °C79 %1011.2 hPa16.1 kmSE (130°)20.4 km/hMostly Cloudy
1:38 PM30 °C25 °C74 %1011.2 hPa16.1 kmSE (130°)22.2 km/hScattered Clouds
1:48 PM30 °C25 °C74 %1010.8 hPa16.1 kmSE (130°)22.2 km/hMostly Cloudy
1:53 PM30 °C25 °C74 %1011.2 hPa16.1 kmSE (130°)24.1 km/hMostly Cloudy
1:58 PM30 °C25 °C74 %1009.8 hPa16.1 kmESE (120°)22.2 km/hScattered Clouds
2:38 PM30 °C26 °C79 %1010.8 hPa16.1 kmSSE (150°)18.5 km/hMostly Cloudy
2:48 PM29 °C25 °C79 %1010.8 hPa16.1 kmSSE (150°)20.4 km/hScattered Clouds
2:58 PM29.3 °C25.3 °C79 %1009.8 hPa16.1 kmSE (130°)20.4 km/hScattered Clouds
3:58 PM28.9 °C25.1 °C80 %1009.8 hPa16.1 kmSE (140°)16.7 km/hPartly Cloudy
4:58 PM28.5 °C24.1 °C77 %1009.8 hPa16.1 kmSSE (150°)16.7 km/hPartly Cloudy
5:58 PM28.4 °C24 °C77 %1010.5 hPa16.1 kmSE (140°)16.7 km/hClear
6:58 PM27.5 °C24.6 °C84 %1011.2 hPa16.1 kmSE (140°)13 km/hClear
7:58 PM27.2 °C24.5 °C85 %1011.5 hPa16.1 kmSSE (160°)11.1 km/hClear
8:58 PM27.2 °C24.5 °C85 %1011.5 hPa16.1 kmSSE (150°)9.3 km/hClear
9:58 PM27.4 °C24.7 °C85 %1012.2 hPa16.1 kmSE (140°)11.1 km/hOvercast
10:56 PM27 °C25 °C89 %1013.5 hPa16.1 kmSE (130°)16.7 km/hRainLight Rain
10:58 PM27 °C25 °C89 %1012.9 hPa16.1 kmSE (130°)20.4 km/hRainLight Rain
11:08 PM26 °C24 °C89 %1013.5 hPa4.8 kmSSE (160°)14.8 km/hRainRain
11:13 PM25 °C23 °C89 %1013.5 hPa4.8 kmSE (140°)9.3 km/hRainLight Rain
11:18 PM25 °C24 °C94 %1013.5 hPa16.1 kmESE (120°)9.3 km/hMostly Cloudy
11:58 PM26.2 °C25.1 °C94 %1012.2 hPa16.1 kmESE (120°)11.1 km/h1.02 mmPartly Cloudy
Hourly data recorded from PGUA, located 0 kilometers away from Inarajan, Guam







STORIES FROM OUR PARTNERS